OBJECT CL, 62691

Orbit data source: Space-Track

You're viewing an Uncataloged Satellite

Recently launched and/or uncataloged satellites may have evolving metadata. Metadata may include but not limited to: Owner, Maufacturer, Bus, Motor, and Mission.

OBJECT CL, 62691 is a satellite in SSO that was launched on Tue, 14 Jan 2025 UTC via an FALCON 9 launch vehicle from the Air Force Western Test Range (AFWTR). Unknown objects in Earth's orbit typically refer to objects detected orbiting the Earth but have not yet been identified or cataloged. These objects could be anything from previously untracked satellites, spent rocket stages, debris from satellite collisions, or even natural meteoroids temporarily captured by Earth's gravity.

Loading next visibility...
Identifier
62691, 2025-009CL
Orbit
SSO
Country
Flag of TBDTBD
Related business
None
Manufacturer
Unknown
Mission
Operational Amateur Technology
Bus & Motor
Unknown
Mass
Unknown
Launch date (UTC)
2025-01-14 (9 months ago)
Launch vehicle
FALCON 9
Launch site
Air Force Western Test Range (AFWTR)
Object type
Unknown
Shape & HBR
Box, 0.1 m
Radar Cross Section
0.004 m², Small (<0.1 m²)

Expand to show TLE details & history
Last TLE update: 12 hours ago

TLE from 12 hours ago
0 OBJECT CL
1 62691U 25009CL  25301.49398270  .00031261  00000-0  11009-2 0  9999
2 62691  97.4000  20.3471 0002088 336.4533  23.6611 15.29245766 43595
Epoch: 2025-10-28T11:51Z
TLE epoch observation values (Epoch: 2025-10-28T11:51:20.105Z)
Latitude
-0.00003°
Longitude
165.43266°
Altitude
479.857 km
Speed
7.626 km/s
True Right ascension
01h 21m 23s
True Declination
0° 00' 00"
Sunlit
Object was in full shadow at epoch
Visualization orbit readout
Latitude
Unknown
Longitude
Unknown
Altitude
Unknown
Speed
Unknown
Apparent Right ascension
Unknown
Apparent Declination
Unknown
Sunlit
N/A
Visualization observer readout
Local Sidereal Time
19:12:32
Azimuth
Unknown
Elevation
Unknown
Doppler factor
Unknown
Orbital elements
Apogee altitude
476.45 km
Perigee altitude
473.588 km
Semi-major axis
6,853.156 km
Eccentricity
0.00021
Inclination
97.4°
RAAN
20.3471°
Arg. of periapsis
336.4533°
True anomaly
23.6707°
Mean anomaly
23.6611°
Eccentric anomaly
23.6659°
Mean motion
3.82567 °/min
Orbital period
94.1 mins
BSTAR
0.0011009
Loading maneuver chart data...
Computing Atmospheric mass density...
Loading historical data...
Loading historical data...
Loading historical data...
Loading historical data...
Loading historical data...
Loading historical data...
Loading historical data...

Documentation

Showing up to 5 results
|